Weather History for Leadville, CO

Change the Weather History Date:

Tuesday, June 5, 2012

  Actual Average Record
Temperature  
Mean Temperature 49 °F -  
Max Temperature 63 °F 62 °F 75 °F (1977)
Min Temperature 35 °F 31 °F 26 °F (1983)
Degree Days  
Heating Degree Days 16 19  
Month to date heating degree days 70 96  
Since 1 June heating degree days 70 96  
Since 1 July heating degree days 10237 10850  
Cooling Degree Days 0 0  
Month to date cooling degree days 0 0  
Year to date cooling degree days 0 0  
Since 1 June cooling degree days 0 0  
Moisture  
Dew Point 36 °F    
Average Humidity 64    
Maximum Humidity 100    
Minimum Humidity 27    
Precipitation  
Precipitation T in 0.03 in 0.11 in (1986)
Month to date precipitation 0.13 0.14  
Year to date precipitation 3.83 4.27  
Snow  
Snow 0.00 in - - ()
Month to date snowfall 0.0  
Since 1 June snowfall 0.0  
Snow Depth 0.00 in    
Sea Level Pressure  
Sea Level Pressure 29.89 in    
Wind  
Wind Speed 7 mph (SSE)    
Max Wind Speed 25 mph    
Max Gust Speed 32 mph    
Visibility 10 miles    
Events Rain    
T = Trace of Precipitation, MM = Missing Value Source: NWS Daily Summary

Daily Weather History Graph

Daily Weather History Graph

Search for Another Location

Airport:

Trip Planner

Search our weather history database for the weather conditions in past years. The results will help you decide how hot, cold, wet, or windy it might be!

Date:

Astronomy

Jun. 05, 2012 Rise Set
Actual Time 5:39 AM MDT 8:28 PM MDT
Civil Twilight 5:07 AM MDT 9:00 PM MDT
Nautical Twilight 4:27 AM MDT 9:40 PM MDT
Astronomical Twilight 3:41 AM MDT 10:26 PM MDT
Moon 9:56 PM MDT (6/5) 6:54 AM MDT (6/5)
Length of Visible Light 15h 53m
Length of Day
14h 49m
Full, 98% of the Moon is Illuminated
Jun 5
Full
Jun 11
Last Quarter
Jun 19
New
Jun 26
First Quarter
Jul 3
Full

Hourly Weather History & Observations

Time (MDT) Temp. Windchill Dew Point Humidity Pressure Visibility Wind Dir Wind Speed Gust Speed Precip Events Conditions
12:53 AM 42.1 °F 40.2 °F 39.0 °F 89% 29.83 in 10.0 mi NNE 3.5 mph - 0.00 in   Overcast
1:53 AM 39.9 °F 37.8 °F 39.0 °F 97% 29.80 in 10.0 mi West 3.5 mph - N/A   Scattered Clouds
2:53 AM 39.0 °F 34.8 °F 37.9 °F 96% 29.81 in 10.0 mi SSE 5.8 mph - N/A   Clear
3:18 AM 37.4 °F - 37.4 °F 100% 30.28 in 4.0 mi Calm Calm - N/A   Scattered Clouds
3:28 AM 37.4 °F - 37.4 °F 100% 30.28 in 10.0 mi Calm Calm - N/A   Mostly Cloudy
3:38 AM 37.4 °F - 37.4 °F 100% 30.28 in 10.0 mi Calm Calm - N/A   Scattered Clouds
3:53 AM 37.0 °F - 36.0 °F 96% 29.84 in 10.0 mi Calm Calm - N/A   Clear
4:44 AM 37.4 °F - 35.6 °F 93% 30.29 in 10.0 mi Calm Calm - N/A   Mostly Cloudy
4:53 AM 37.0 °F - 36.0 °F 96% 29.86 in 10.0 mi Calm Calm - N/A   Mostly Cloudy
5:49 AM 37.4 °F 33.8 °F 35.6 °F 93% 30.28 in 10.0 mi ENE 4.6 mph - N/A   Scattered Clouds
5:53 AM 37.0 °F - 36.0 °F 96% 29.84 in 10.0 mi Calm Calm - N/A   Partly Cloudy
6:18 AM 35.6 °F 32.8 °F 35.6 °F 100% 30.28 in 10.0 mi NE 3.5 mph - N/A   Partly Cloudy
6:53 AM 37.0 °F - 36.0 °F 96% 29.85 in 10.0 mi Calm Calm - N/A   Partly Cloudy
7:53 AM 42.1 °F - 39.0 °F 89% 29.83 in 10.0 mi Calm Calm - N/A   Scattered Clouds
8:17 AM 42.8 °F 41.1 °F 39.2 °F 87% 30.28 in 10.0 mi West 3.5 mph - N/A   Mostly Cloudy
8:53 AM 44.1 °F - 39.9 °F 85% 29.86 in 10.0 mi Calm Calm - N/A   Mostly Cloudy
9:05 AM 44.6 °F 43.1 °F 41.0 °F 87% 30.26 in 10.0 mi West 3.5 mph - N/A   Scattered Clouds
9:53 AM 48.0 °F - 42.1 °F 80% 29.82 in 10.0 mi South 5.8 mph - N/A   Clear
10:53 AM 55.9 °F - 41.0 °F 57% 29.78 in 10.0 mi South 12.7 mph 19.6 mph N/A   Clear
11:53 AM 60.1 °F - 39.0 °F 46% 29.75 in 10.0 mi South 16.1 mph 24.2 mph N/A   Clear
12:53 PM 61.0 °F - 37.0 °F 41% 29.72 in 10.0 mi South 16.1 mph 23.0 mph N/A   Clear
1:53 PM 59.0 °F - 36.0 °F 42% 29.73 in 10.0 mi South 18.4 mph 28.8 mph N/A   Clear
2:53 PM 62.1 °F - 35.1 °F 37% 29.71 in 10.0 mi SE 8.1 mph 25.3 mph N/A   Clear
3:53 PM 62.1 °F - 30.9 °F 31% 29.71 in 10.0 mi SSE 16.1 mph 20.7 mph N/A   Scattered Clouds
4:53 PM 60.1 °F - 33.1 °F 36% 29.71 in 10.0 mi SSE 15.0 mph 23.0 mph 0.00 in Rain Light Rain
5:53 PM 63.0 °F - 30.0 °F 29% 29.68 in 10.0 mi SSE 12.7 mph 24.2 mph 0.00 in   Clear
6:53 PM 62.1 °F - 28.0 °F 28% 29.67 in 10.0 mi SSE 18.4 mph 24.2 mph N/A   Partly Cloudy
7:53 PM 61.0 °F - 30.0 °F 31% 29.66 in 10.0 mi SSE 10.4 mph 20.7 mph N/A   Scattered Clouds
8:53 PM 57.0 °F - 33.1 °F 40% 29.69 in 10.0 mi SSE 8.1 mph 17.3 mph N/A   Clear
9:53 PM 50.0 °F - 35.1 °F 57% 29.75 in 10.0 mi Calm Calm - N/A   Clear
10:53 PM 46.9 °F - 35.1 °F 63% 29.70 in 10.0 mi Calm Calm - N/A   Clear
11:53 PM 46.0 °F 44.8 °F 36.0 °F 68% 29.70 in 10.0 mi NNE 3.5 mph - N/A   Clear